| time (UTC) | temp C | wind direction | speed KPH | gust KPH | rain 1hr cm | rain 24hr cm | rain mn cm | humidity % | barometer mb |
| 20260504213912 | 24 | 245 | 0.0 | 4.8 | 0.00 | 0.00 | 0.00 | 36 | 1013.1 |
| 20260504212910 | 25 | 93 | 0.0 | 3.2 | 0.00 | 0.00 | 0.00 | 35 | 1013.1 |
| 20260504211910 | 24 | 233 | 0.0 | 11.3 | 0.00 | 0.00 | 0.00 | 35 | 1013.2 |
| 20260504210904 | 25 | 86 | 0.0 | 3.2 | 0.00 | 0.00 | 0.00 | 35 | 1013.2 |
| 20260504205904 | 25 | 221 | 0.0 | 4.8 | 0.00 | 0.00 | 0.00 | 36 | 1013.3 |
| 20260504204904 | 24 | 188 | 0.0 | 1.6 | 0.00 | 0.00 | 0.00 | 37 | 1013.4 |
| 20260504203904 | 24 | 22 | 0.0 | 4.8 | 0.00 | 0.00 | 0.00 | 38 | 1013.5 |
| 20260504203843 | 24 | 297 | 0.0 | 4.8 | 0.00 | 0.00 | 0.00 | 36 | 1013.6 |
| 20260504201904 | 24 | 273 | 1.6 | 6.4 | 0.00 | 0.00 | 0.00 | 37 | 1013.8 |
| 20260504201345 | 24 | 208 | 0.0 | 8.0 | 0.00 | 0.00 | 0.00 | 36 | 1013.9 |
| 20260504195904 | 24 | 83 | 0.0 | 3.2 | 0.00 | 0.00 | 0.00 | 40 | 1014.0 |
| 20260504195822 | 23 | 345 | 1.6 | 6.4 | 0.00 | 0.00 | 0.00 | 38 | 1014.2 |
| 20260504193858 | 24 | 354 | 0.0 | 3.2 | 0.00 | 0.00 | 0.00 | 39 | 1014.2 |
| 20260504193339 | 24 | 216 | 0.0 | 4.8 | 0.00 | 0.00 | 0.00 | 37 | 1014.3 |
| 20260504191858 | 24 | 270 | 0.0 | 6.4 | 0.00 | 0.00 | 0.00 | 37 | 1014.4 |
| 20260504190857 | 24 | 69 | 1.6 | 6.4 | 0.00 | 0.00 | 0.00 | 40 | 1014.6 |
| 20260504185857 | 24 | 326 | 0.0 | 4.8 | 0.00 | 0.00 | 0.00 | 40 | 1014.6 |
| 20260504184857 | 24 | 333 | 0.0 | 4.8 | 0.00 | 0.00 | 0.00 | 38 | 1014.9 |
| 20260504183858 | 24 | 60 | 0.0 | 6.4 | 0.00 | 0.00 | 0.00 | 38 | 1014.9 |
| 20260504182858 | 23 | 253 | 0.0 | 4.8 | 0.00 | 0.00 | 0.00 | 40 | 1015.2 |
| 20260504181900 | 23 | 256 | 1.6 | 8.0 | 0.00 | 0.00 | 0.00 | 38 | 1015.2 |
| 20260504180851 | 23 | 127 | 1.6 | 9.7 | 0.00 | 0.00 | 0.00 | 37 | 1015.3 |
| 20260504175850 | 23 | 332 | 0.0 | 4.8 | 0.00 | 0.00 | 0.00 | 37 | 1015.3 |
| 20260504174850 | 24 | 323 | 0.0 | 3.2 | 0.00 | 0.00 | 0.00 | 39 | 1015.3 |
| 20260504173851 | 23 | 84 | 0.0 | 4.8 | 0.00 | 0.00 | 0.00 | 37 | 1015.5 |
| 20260504172849 | 23 | 338 | 0.0 | 3.2 | 0.00 | 0.00 | 0.00 | 39 | 1015.5 |
| 20260504171853 | 23 | 134 | 1.6 | 6.4 | 0.00 | 0.00 | 0.00 | 38 | 1015.6 |
| 20260504170849 | 23 | 55 | 0.0 | 9.7 | 0.00 | 0.00 | 0.00 | 38 | 1015.9 |
| 20260504150846 | 19 | 229 | 0.0 | 3.2 | 0.00 | 0.00 | 0.00 | 53 | 1017.4 |
| 20260504150321 | 18 | 359 | 0.0 | 3.2 | 0.00 | 0.00 | 0.00 | 53 | 1017.5 |
| 20260504140838 | 15 | 340 | 1.6 | 3.2 | 0.00 | 0.00 | 0.00 | 69 | 1017.3 |
| 20260504081821 | 8 | 349 | 0.0 | 0.0 | 0.00 | 0.00 | 0.00 | 89 | 1016.6 |
| 20260504081305 | 8 | 349 | 0.0 | 0.0 | 0.00 | 0.00 | 0.00 | 88 | 1016.4 |
| 20260504045814 | 13 | 154 | 0.0 | 0.0 | 0.00 | 0.00 | 0.00 | 65 | 1016.5 |
| 20260504044813 | 13 | 154 | 0.0 | 0.0 | 0.00 | 0.00 | 0.00 | 64 | 1016.4 |
| 20260504043812 | 13 | 164 | 0.0 | 0.0 | 0.00 | 0.00 | 0.00 | 64 | 1016.2 |
| 20260504042813 | 13 | 155 | 0.0 | 0.0 | 0.00 | 0.00 | 0.00 | 65 | 1016.4 |
| 20260504041813 | 13 | 316 | 0.0 | 0.0 | 0.00 | 0.00 | 0.00 | 65 | 1016.4 |
| 20260504040813 | 12 | 317 | 0.0 | 0.0 | 0.00 | 0.00 | 0.00 | 65 | 1016.4 |
| 20260504035813 | 12 | 317 | 0.0 | 0.0 | 0.00 | 0.00 | 0.00 | 67 | 1016.6 |
| 20260504034812 | 12 | 317 | 0.0 | 0.0 | 0.00 | 0.00 | 0.00 | 68 | 1016.6 |
| 20260504033813 | 11 | 317 | 0.0 | 0.0 | 0.00 | 0.00 | 0.00 | 70 | 1016.7 |
| 20260504032813 | 12 | 317 | 0.0 | 0.0 | 0.00 | 0.00 | 0.00 | 68 | 1016.7 |
| 20260504031813 | 12 | 317 | 0.0 | 0.0 | 0.00 | 0.00 | 0.00 | 67 | 1016.7 |
| 20260504031256 | 12 | 317 | 0.0 | 0.0 | 0.00 | 0.00 | 0.00 | 67 | 1016.7 |
| 20260504025813 | 12 | 317 | 0.0 | 0.0 | 0.00 | 0.00 | 0.00 | 67 | 1016.7 |
| 20260504024812 | 12 | 317 | 0.0 | 0.0 | 0.00 | 0.00 | 0.00 | 68 | 1016.7 |
| 20260504023809 | 12 | 317 | 0.0 | 0.0 | 0.00 | 0.00 | 0.00 | 68 | 1016.7 |
| 20260504022808 | 12 | 317 | 0.0 | 0.0 | 0.00 | 0.00 | 0.00 | 67 | 1016.6 |
| 20260504021809 | 12 | 317 | 0.0 | 0.0 | 0.00 | 0.00 | 0.00 | 64 | 1016.4 |
| 20260504021732 | 12 | 317 | 0.0 | 0.0 | 0.00 | 0.00 | 0.00 | 61 | 1016.3 |
| 20260504015810 | 12 | 317 | 0.0 | 0.0 | 0.00 | 0.00 | 0.00 | 61 | 1016.1 |
| 20260504014806 | 13 | 317 | 0.0 | 0.0 | 0.00 | 0.00 | 0.00 | 60 | 1016.0 |
| 20260504013807 | 13 | 317 | 0.0 | 0.0 | 0.00 | 0.00 | 0.00 | 58 | 1015.8 |
| 20260504013718 | 13 | 317 | 0.0 | 0.0 | 0.00 | 0.00 | 0.00 | 57 | 1015.9 |
| 20260504011801 | 13 | 317 | 0.0 | 0.0 | 0.00 | 0.00 | 0.00 | 56 | 1015.8 |
| 20260504010800 | 14 | 317 | 0.0 | 0.0 | 0.00 | 0.00 | 0.00 | 52 | 1015.6 |
| 20260504010728 | 15 | 317 | 0.0 | 0.0 | 0.00 | 0.00 | 0.00 | 49 | 1015.5 |
| 20260504004800 | 15 | 317 | 0.0 | 0.0 | 0.00 | 0.00 | 0.00 | 48 | 1015.4 |
| 20260504003800 | 15 | 317 | 0.0 | 0.0 | 0.00 | 0.00 | 0.00 | 46 | 1015.4 |
| 20260504003714 | 16 | 317 | 0.0 | 0.0 | 0.00 | 0.00 | 0.00 | 45 | 1015.4 |
| 20260504001801 | 16 | 317 | 0.0 | 0.0 | 0.00 | 0.00 | 0.00 | 43 | 1015.3 |
| 20260504000801 | 17 | 317 | 0.0 | 0.0 | 0.00 | 0.00 | 0.00 | 42 | 1015.2 |
| 20260503235754 | 17 | 317 | 0.0 | 0.0 | 0.00 | 0.00 | 0.00 | 42 | 1015.1 |
| 20260503234754 | 17 | 317 | 0.0 | 0.0 | 0.00 | 0.00 | 0.00 | 41 | 1015.2 |
| 20260503233754 | 18 | 317 | 0.0 | 0.0 | 0.00 | 0.00 | 0.00 | 40 | 1015.1 |
| 20260503232754 | 18 | 317 | 0.0 | 0.0 | 0.00 | 0.00 | 0.00 | 39 | 1015.1 |
| 20260503231754 | 18 | 317 | 0.0 | 0.0 | 0.00 | 0.00 | 0.00 | 39 | 1015.1 |
| 20260503230754 | 18 | 333 | 0.0 | 0.0 | 0.00 | 0.00 | 0.00 | 40 | 1015.1 |
| 20260503230243 | 18 | 219 | 0.0 | 1.6 | 0.00 | 0.00 | 0.00 | 38 | 1015.2 |
| 20260503224754 | 19 | 274 | 0.0 | 0.0 | 0.00 | 0.00 | 0.00 | 38 | 1015.2 |
| 20260503223757 | 19 | 256 | 0.0 | 0.0 | 0.00 | 0.00 | 0.00 | 38 | 1015.3 |
| 20260503222748 | 18 | 333 | 0.0 | 6.4 | 0.00 | 0.00 | 0.00 | 39 | 1015.4 |
| 20260503221748 | 18 | 323 | 0.0 | 3.2 | 0.00 | 0.00 | 0.00 | 39 | 1015.4 |
| 20260503220748 | 18 | 335 | 0.0 | 4.8 | 0.00 | 0.00 | 0.00 | 36 | 1015.5 |
| 20260503215749 | 19 | 271 | 0.0 | 1.6 | 0.00 | 0.00 | 0.00 | 37 | 1015.6 |
| 20260503215709 | 18 | 260 | 0.0 | 4.8 | 0.00 | 0.00 | 0.00 | 37 | 1015.7 |